Location: Joffre
(52.3362°N, 113.5373°W)
Time: 07:38:15
(UTC+00:00)

Envisat - Pass Details

Date: 04 December 2021
Orbit: 764 x 766 km, 98.2° (Epoch: 17 January)

Event Time Altitude Azimuth Distance (km) Brightness Sun altitude
Rises 13:49:54 0° 9° (N) 3,248 6.1 -13.8°
Reaches altitude 10° 13:52:23 10° 0° (N) 2,317 5.3 -13.4°
Maximum altitude 13:56:55 34° 297° (WNW) 1,258 3.6 -12.8°
Drops below altitude 10° 14:01:26 10° 235° (SW) 2,302 5.2 -12.1°
Sets 14:03:54 0° 226° (SW) 3,224 6.0 -11.8°
